9Z4CT-3 Weather Reports


time (UTC)temp
C
wind
direction
speed
KPH
gust
KPH
rain 1hr
cm
rain 24hr
cm
rain mn
cm
humidity
%
barometer
mb
20260507090321 23 73 0.0 0.0 0.00 0.00 0.00 89 1014.1
20260507085335 23 73 0.0 0.0 0.00 0.00 0.00 89 1014.1
20260507084316 23 73 0.0 0.0 0.00 0.00 0.00 89 1014.1
20260507083338 23 73 0.0 0.0 0.00 0.00 0.00 89 1014.0
20260507082321 23 73 0.0 0.0 0.00 0.00 0.00 89 1014.1
20260507081345 23 73 0.0 0.0 0.00 0.00 0.00 89 1014.0
20260507080330 23 73 0.0 0.0 0.00 0.00 0.00 89 1014.0
20260507075326 23 73 0.0 0.0 0.00 0.00 0.00 89 1013.9
20260507074325 23 73 0.0 0.0 0.00 0.00 0.00 88 1013.8
20260507073325 23 73 0.0 0.0 0.00 0.00 0.00 88 1013.8
20260507072329 23 73 0.0 0.0 0.00 0.00 0.00 88 1013.9
20260507071333 23 73 0.0 0.0 0.00 0.20 0.00 88 1013.9
20260507070316 23 73 0.0 0.0 0.00 0.20 0.00 88 1013.9
20260507065315 23 73 0.0 0.0 0.00 0.20 0.00 88 1013.9
20260507064315 23 73 0.0 0.0 0.00 0.20 0.00 88 1014.0
20260507063319 23 73 0.0 0.0 0.00 0.20 0.00 88 1014.1
20260507062321 23 73 0.0 0.0 0.00 0.20 0.00 88 1014.1
20260507061347 23 73 0.0 1.6 0.00 0.20 0.00 88 1014.1
20260507060348 23 73 0.0 1.6 0.00 0.20 0.00 88 1014.1
20260507055326 23 71 0.0 1.6 0.00 0.20 0.00 87 1014.2
20260507054320 23 71 0.0 0.0 0.00 0.20 0.00 87 1014.3
20260507053340 23 71 0.0 4.8 0.00 0.20 0.00 87 1014.4
20260507052344 23 71 0.0 4.8 0.00 0.20 0.00 87 1014.5
20260507051323 23 78 0.0 0.0 0.00 0.20 0.00 87 1014.7
20260507050327 23 78 0.0 0.0 0.00 0.20 0.00 87 1014.8
20260507045326 23 78 0.0 0.0 0.00 0.20 0.00 87 1014.8
20260507044352 23 78 0.0 1.6 0.00 0.20 0.00 87 1014.9
20260507043315 23 78 0.0 1.6 0.00 0.20 0.00 87 1015.1
20260507042336 24 78 0.0 1.6 0.00 0.20 0.00 87 1015.3
20260507041316 24 78 0.0 3.2 0.00 0.20 0.05 87 1015.4
20260507040320 24 78 0.0 3.2 0.00 0.20 0.05 87 1015.3
20260507035342 24 71 0.0 3.2 0.00 0.20 0.05 87 1015.4
20260507034322 24 71 1.6 3.2 0.00 0.20 0.05 86 1015.5
20260507033317 24 70 1.6 3.2 0.00 0.20 0.05 86 1015.6
20260507032339 24 69 0.0 0.0 0.00 0.20 0.05 86 1015.7
20260507031317 24 69 0.0 0.0 0.00 0.20 0.05 86 1015.7
20260507030334 24 69 0.0 0.0 0.00 0.20 0.05 86 1015.7
20260507025352 24 69 0.0 0.0 0.00 0.20 0.05 85 1015.7
20260507024352 25 69 0.0 0.0 0.00 0.20 0.05 85 1015.6
20260507023332 25 69 0.0 0.0 0.00 0.20 0.05 85 1015.7
20260507022313 25 69 0.0 1.6 0.00 0.20 0.05 85 1015.6
20260507021314 25 69 0.0 3.2 0.00 0.20 0.05 85 1015.7
20260507020318 25 69 0.0 3.2 0.00 0.20 0.05 85 1015.8
20260507015335 25 69 3.2 6.4 0.00 0.20 0.05 84 1015.8
20260507014315 25 106 0.0 0.0 0.00 0.20 0.05 84 1015.8
20260507013319 25 106 0.0 4.8 0.00 0.20 0.05 84 1015.7
20260507012319 25 105 1.6 6.4 0.00 0.20 0.05 84 1015.6
20260507011340 25 106 1.6 4.8 0.00 0.20 0.05 83 1015.5
20260507010333 25 116 1.6 4.8 0.00 0.20 0.05 83 1015.4
20260507005359 25 117 1.6 4.8 0.00 0.20 0.05 83 1015.2
20260507004313 25 121 1.6 6.4 0.00 0.20 0.05 83 1015.2
20260507003327 25 109 0.0 4.8 0.00 0.20 0.05 82 1014.9
20260507002326 26 100 1.6 4.8 0.00 0.20 0.05 82 1014.9
20260507001330 26 100 3.2 9.7 0.00 0.20 0.05 82 1014.8
20260507000350 26 109 1.6 6.4 0.00 0.20 0.05 81 1014.8
20260506235327 26 127 1.6 6.4 0.00 0.20 0.05 81 1014.7
20260506234328 26 128 1.6 4.8 0.00 0.20 0.05 80 1014.6
20260506233330 26 127 3.2 6.4 0.00 0.20 0.05 80 1014.5
20260506232330 26 113 3.2 4.8 0.00 0.20 0.05 79 1014.3
20260506231329 26 110 1.6 4.8 0.00 0.20 0.05 79 1014.2
20260506230330 27 121 1.6 4.8 0.00 0.20 0.05 78 1014.2
20260506225328 27 138 1.6 3.2 0.00 0.20 0.05 77 1014.2
20260506224326 27 138 1.6 4.8 0.00 0.20 0.05 76 1014.1
20260506223325 27 134 1.6 4.8 0.00 0.20 0.05 75 1014.1
20260506222328 28 127 0.0 4.8 0.00 0.20 0.05 74 1014.0
20260506221330 28 101 1.6 8.0 0.00 0.20 0.05 73 1014.0
20260506220328 28 132 0.0 4.8 0.00 0.20 0.05 72 1013.9
20260506215348 28 127 1.6 11.3 0.00 0.20 0.05 71 1013.8
20260506214351 29 114 1.6 11.3 0.00 0.20 0.05 70 1013.7
20260506213312 29 99 1.6 11.3 0.00 0.20 0.05 68 1013.7
20260506212332 30 82 1.6 16.1 0.00 0.20 0.05 67 1013.5
20260506211314 30 123 4.8 14.5 0.00 0.20 0.05 66 1013.4
20260506210315 30 178 1.6 12.9 0.00 0.20 0.05 64 1013.3
20260506205316 31 117 4.8 14.5 0.00 0.20 0.05 64 1013.2
20260506204336 31 135 3.2 17.7 0.00 0.20 0.05 64 1013.1
20260506203344 31 122 4.8 16.1 0.00 0.20 0.05 62 1013.2
20260506202325 32 127 3.2 16.1 0.00 0.20 0.05 62 1013.1
20260506201326 32 197 3.2 16.1 0.00 0.20 0.05 60 1013.1
20260506200322 32 178 4.8 11.3 0.00 0.20 0.05 61 1012.9
20260506195317 32 109 4.8 11.3 0.00 0.20 0.05 60 1012.9
20260506194317 32 134 1.6 20.9 0.00 0.20 0.05 61 1013.0
20260506193318 32 177 1.6 6.4 0.00 0.20 0.05 60 1013.1
20260506192337 32 146 1.6 17.7 0.00 0.20 0.05 60 1013.2
20260506191320 33 142 4.8 14.5 0.00 0.20 0.05 57 1013.2
20260506190320 33 133 3.2 9.7 0.00 0.20 0.05 57 1013.2
20260506185318 33 129 1.6 11.3 0.00 0.20 0.05 58 1013.4
20260506184339 33 86 4.8 17.7 0.00 0.20 0.05 59 1013.5
20260506183316 33 142 3.2 14.5 0.00 0.20 0.05 57 1013.7
20260506182319 33 183 3.2 16.1 0.00 0.20 0.05 58 1013.7
20260506181319 33 103 4.8 14.5 0.00 0.89 0.05 59 1013.8
20260506180319 33 151 1.6 16.1 0.00 0.89 0.05 60 1013.9
20260506175339 33 157 1.6 11.3 0.00 0.89 0.05 60 1014.1
20260506174332 33 120 4.8 11.3 0.00 0.89 0.05 59 1014.3
20260506173351 33 116 4.8 20.9 0.00 0.89 0.05 61 1014.3
20260506172332 33 127 1.6 14.5 0.00 0.89 0.05 62 1014.4
20260506171334 33 165 3.2 12.9 0.00 0.89 0.05 60 1014.5
20260506170314 33 178 1.6 17.7 0.00 0.89 0.05 61 1014.6
20260506165348 33 148 4.8 12.9 0.00 0.89 0.05 60 1014.6
20260506164326 32 165 4.8 11.3 0.00 0.89 0.05 61 1014.9
20260506163331 32 142 3.2 12.9 0.00 0.89 0.05 61 1015.2
20260506162314 32 129 3.2 11.3 0.00 0.89 0.05 63 1015.3
20260506161327 32 190 3.2 11.3 0.00 0.89 0.05 63 1015.5
20260506160339 32 196 3.2 24.1 0.00 0.89 0.05 64 1015.4
20260506155313 32 166 4.8 14.5 0.00 0.89 0.05 62 1015.6
20260506154353 32 189 3.2 11.3 0.00 0.89 0.05 64 1015.6
20260506153330 32 182 1.6 12.9 0.00 0.89 0.05 64 1015.8
20260506152331 32 194 3.2 14.5 0.00 0.89 0.05 64 1015.8
20260506151312 32 213 3.2 9.7 0.00 0.89 0.05 66 1015.7
20260506150329 32 153 3.2 8.0 0.00 0.89 0.05 65 1015.8
20260506145325 31 203 3.2 11.3 0.00 0.89 0.05 67 1015.9
20260506144321 31 124 4.8 16.1 0.00 0.89 0.05 67 1016.0
20260506143319 31 98 6.4 17.7 0.00 0.89 0.05 70 1016.0
20260506142318 31 189 1.6 11.3 0.00 0.89 0.05 70 1016.1
20260506141337 30 79 1.6 11.3 0.00 0.89 0.05 71 1016.1
20260506140327 30 123 3.2 11.3 0.00 0.89 0.05 71 1016.1
20260506135345 29 184 4.8 19.3 0.00 0.89 0.05 72 1016.2
20260506134322 29 182 3.2 20.9 0.00 0.89 0.05 73 1016.3
20260506133323 28 195 1.6 8.0 0.00 0.89 0.05 75 1016.3
20260506132324 28 153 8.0 17.7 0.00 0.89 0.05 76 1016.3
20260506131324 28 186 3.2 14.5 0.00 0.89 0.05 78 1016.3
20260506130325 27 171 3.2 8.0 0.00 0.89 0.05 80 1016.4
20260506125322 27 139 3.2 8.0 0.00 0.89 0.05 82 1016.3
20260506124323 27 191 4.8 9.7 0.00 0.89 0.05 84 1016.3
20260506123322 27 128 1.6 16.1 0.00 0.89 0.05 85 1016.3
20260506122320 27 147 1.6 17.7 0.00 0.89 0.05 87 1016.1
20260506121337 26 132 4.8 11.3 0.00 0.89 0.05 88 1016.0
20260506120349 26 129 4.8 8.0 0.00 0.89 0.05 89 1016.0
20260506115325 25 118 3.2 9.7 0.00 0.89 0.05 89 1016.1
20260506114324 25 122 1.6 6.4 0.00 0.89 0.05 89 1016.0
20260506113326 25 110 1.6 4.8 0.00 0.89 0.05 89 1015.9
20260506112330 25 157 0.0 4.8 0.00 0.89 0.05 89 1015.9
20260506111330 25 79 1.6 8.0 0.00 0.89 0.05 89 1015.7
20260506110331 24 113 1.6 4.8 0.00 0.89 0.05 89 1015.5
20260506105346 24 154 3.2 4.8 0.00 0.89 0.05 89 1015.5
20260506104326 24 160 1.6 3.2 0.00 0.89 0.05 89 1015.4
20260506103351 23 161 0.0 3.2 0.00 0.89 0.05 89 1015.3
20260506102331 23 161 1.6 3.2 0.00 0.89 0.05 89 1015.2
20260506101331 23 161 0.0 3.2 0.00 0.89 0.05 89 1015.1
20260506100335 23 162 0.0 0.0 0.00 0.89 0.05 89 1015.1
20260506095313 23 162 0.0 0.0 0.00 0.89 0.05 89 1015.2
20260506094313 23 165 1.6 3.2 0.00 0.89 0.05 89 1015.1
20260506093318 23 116 0.0 0.0 0.00 0.89 0.05 88 1015.1
20260506092320 23 116 0.0 0.0 0.00 0.89 0.05 88 1015.1
20260506091321 23 115 0.0 0.0 0.00 0.89 0.05 88 1015.0